Wind_Speed
15 15 16 17 18 17 15 13 11 9 10 8 5 4 7 18 30 42 28 22 19 12 7 7 11 12 22 11 13 2 8 12 9 5 9 7 6 9 10 14 14 8 11 7 9
15 14 15 16 17 19 17 11 10 11 20 8 8 10 8 5 16 41 36 20 8 10 5 10 16 20 11 12 8 7 12 7 7 10 11 7 7 7 4 9 11 10 9 6 8
14 14 14 15 15 16 16 14 10 9 20 28 8 7 7 2 11 20 38 18 7 8 9 14 20 21 20 14 11 7 10 15 14 13 10 12 9 3 7 7 7 6 6 6 9
13 13 13 13 13 15 15 21 25 17 4 17 31 25 10 1 7 25 33 17 9 3 2 6 7 7 12 12 13 17 14 12 11 9 5 7 6 8 2 7 5 5 3 5 7
13 13 12 11 11 14 12 12 17 16 12 11 4 4 13 20 12 22 26 19 10 13 17 17 20 16 15 21 24 21 15 13 11 8 9 5 5 7 8 5 4 2 1 4 7
11 11 11 10 9 12 14 15 23 26 28 23 22 18 16 27 12 18 23 24 27 22 16 11 17 24 16 9 8 15 17 14 9 8 6 4 7 3 6 5 4 3 2 4 6
10 11 10 9 7 7 12 14 10 10 21 22 10 22 41 13 13 13 20 24 19 20 21 13 7 6 12 22 19 19 15 9 5 4 3 1 8 3 8 6 6 5 5 5 6
11 11 10 9 8 8 7 9 15 9 10 12 13 23 13 8 13 18 13 22 23 24 28 24 24 21 9 19 8 6 2 2 5 1 3 5 7 6 6 7 8 7 7 8 9
11 11 10 12 22 20 10 4 6 15 16 12 9 11 9 7 16 15 15 12 17 22 21 14 24 16 11 7 8 2 4 5 5 2 3 4 7 3 6 8 10 10 10 10 10
10 11 10 9 12 9 10 19 32 8 5 4 13 6 9 9 8 7 11 7 6 1 5 11 8 14 12 4 7 7 5 1 3 4 5 7 8 1 7 10 11 12 12 12 13
8 11 15 4 6 5 3 2 2 7 26 16 14 14 5 5 17 20 5 6 9 12 10 16 14 15 15 12 8 5 5 6 1 4 8 5 10 8 6 10 11 12 13 14 15
6 7 9 18 7 0 3 5 4 5 14 14 10 14 11 4 6 21 19 8 14 9 5 9 18 10 7 8 7 5 6 7 1 2 6 10 14 10 7 10 10 12 15 16 16
4 3 4 5 10 19 17 8 4 2 4 7 6 7 5 13 9 14 10 4 15 19 19 15 7 2 3 4 4 2 11 10 5 6 7 12 6 3 4 10 12 13 15 16 16
2 1 1 2 4 4 6 4 1 2 2 6 5 6 5 2 6 10 7 4 3 5 7 9 4 1 1 5 8 4 9 6 4 4 4 6 5 2 2 6 8 8 11 14 15
2 2 2 1 5 3 1 2 2 3 1 4 4 2 6 6 2 8 9 9 7 5 5 4 2 3 5 5 7 5 6 5 4 6 7 4 5 3 2 9 13 12 11 11 13
3 3 4 3 5 3 2 1 2 3 3 3 1 1 2 8 4 2 4 6 1 5 12 7 2 2 5 3 4 8 5 6 5 4 4 5 5 3 6 8 12 14 14 13 12
5 5 4 3 2 1 1 3 1 2 1 4 2 1 4 3 3 3 3 7 3 3 2 4 3 1 4 7 4 10 9 3 3 1 5 1 5 6 8 8 9 13 15 13 12
3 5 10 8 4 2 1 3 3 2 2 2 3 4 1 1 2 1 2 2 4 3 0 3 4 1 2 4 5 6 7 4 5 6 8 2 4 2 5 8 9 11 11 10 10
5 4 4 7 4 2 4 1 1 3 6 8 6 5 4 4 2 3 1 1 2 5 4 4 2 3 1 0 4 3 3 3 3 2 5 3 4 10 1 5 6 11 10 9 9
2 2 4 6 4 2 4 1 1 2 2 4 4 3 3 4 4 2 3 2 3 2 3 2 3 2 3 3 3 4 2 3 2 5 6 3 5 5 9 11 11 12 10 9 8
1 2 4 5 2 3 1 2 2 2 1 2 3 3 2 2 3 2 2 3 2 3 2 1 3 4 3 7 2 4 3 1 3 2 4 6 3 5 4 8 12 12 9 8 8
1 1 5 2 2 1 1 2 1 4 2 1 1 1 3 4 3 3 2 1 3 4 1 1 3 4 2 2 2 5 4 4 3 3 3 4 7 3 2 6 9 10 8 6 6
1 2 4 2 2 1 3 3 1 3 3 3 3 2 2 3 3 4 3 2 4 4 2 3 3 4 6 5 4 6 7 7 2 1 7 4 4 4 3 5 12 9 6 5 5
2 2 2 2 1 1 3 3 4 1 2 1 1 2 4 5 4 2 5 4 4 3 2 2 3 7 7 6 3 4 6 10 8 5 2 11 16 16 16 8 13 9 4 4 4
2 1 2 1 3 2 2 2 5 5 3 5 4 9 5 4 5 5 4 5 5 7 4 3 5 6 13 15 13 14 14 13 16 11 7 4 7 17 16 9 4 5 4 4 5
2 2 2 3 3 6 4 5 8 4 6 5 7 3 8 6 4 2 6 5 4 8 5 3 3 6 8 2 4 12 14 15 17 17 16 22 25 13 4 3 5 6 6 7 6
1 1 3 2 3 4 4 4 4 5 5 1 4 5 8 7 2 3 1 2 0 3 9 4 3 3 5 2 11 11 11 17 11 11 9 9 8 7 9 11 6 5 6 8 8
Wind_Direction
93 83 80 76 76 72 77 89 89 66 15 304 256 240 3 38 38 44 28 333 321 349 78 68 71 71 63 58 52 29 103 91 86 78 123 149 103 77 72 83 66 75 69 54 18
97 85 85 79 75 67 67 82 85 59 23 351 253 232 244 353 25 33 353 360 24 63 45 80 68 67 61 49 46 70 84 69 79 105 116 119 100 114 132 97 92 90 80 53 24
92 86 86 75 72 65 63 58 62 64 59 46 73 179 226 317 30 4 351 9 61 66 77 74 82 69 71 58 38 39 94 108 96 103 107 111 104 90 125 87 58 80 74 46 20
86 84 84 72 72 67 71 74 60 55 68 67 76 71 75 215 48 346 358 15 47 63 106 70 86 78 65 74 90 96 95 107 107 108 108 89 107 83 48 93 93 82 49 23 13
81 86 82 70 75 58 68 52 45 44 84 85 42 55 73 71 31 351 5 19 30 77 80 90 87 84 88 97 88 94 103 101 104 102 85 105 92 102 116 122 131 97 351 359 358
83 89 81 61 75 55 71 74 69 84 70 70 74 72 80 69 355 8 22 45 57 78 72 90 93 99 79 75 68 115 112 111 105 89 97 112 122 224 159 173 183 233 285 329 340
92 88 71 65 65 65 80 71 69 60 69 62 34 64 63 62 26 33 43 52 61 67 81 88 99 86 99 95 111 122 109 115 94 87 116 360 188 171 146 191 225 249 267 290 300
96 81 68 76 69 85 96 75 56 68 68 65 69 69 76 37 34 46 55 62 70 78 78 80 87 81 88 124 132 117 174 225 83 162 122 240 57 139 178 207 241 255 270 275 278
96 68 65 93 95 82 78 97 88 68 73 57 53 80 64 16 29 35 44 76 80 79 77 78 72 88 143 149 129 113 40 40 144 33 303 256 346 110 198 230 259 258 262 269 278
93 65 54 125 128 101 75 77 63 45 344 17 32 78 43 33 10 359 46 70 54 111 65 43 72 75 49 8 46 14 9 42 343 54 301 277 272 195 232 243 254 268 272 273 276
95 74 53 92 184 226 304 296 194 47 52 66 63 84 110 65 55 33 5 38 56 60 67 46 77 59 52 50 51 24 357 336 321 14 304 271 286 290 235 244 262 272 276 275 277
108 86 74 63 78 131 107 70 46 112 80 62 74 74 62 52 45 28 40 68 55 69 105 97 58 56 48 41 40 32 341 7 237 352 284 304 289 281 234 243 264 285 288 290 289
140 102 80 63 67 68 77 72 105 123 74 53 41 37 22 46 39 20 25 47 52 66 59 71 86 74 11 51 309 25 359 346 314 323 248 303 249 160 226 251 261 274 281 290 291
173 203 122 76 63 66 62 30 117 186 139 26 28 49 10 9 63 26 27 25 80 89 76 74 115 90 360 48 350 310 358 312 279 281 350 352 322 162 226 301 277 286 291 321 325
119 100 135 55 120 62 21 4 151 236 156 27 51 13 44 65 118 51 34 58 63 76 248 84 113 19 24 10 344 1 321 290 267 277 300 101 268 109 225 340 354 347 327 326 330
93 115 126 90 71 87 348 64 259 221 90 119 42 63 120 50 60 95 60 65 46 66 65 93 92 341 11 313 292 321 277 240 247 261 226 47 327 299 353 321 329 341 336 339 335
82 76 108 105 90 348 16 234 255 76 139 143 122 122 88 70 84 18 54 58 22 260 73 159 109 96 320 297 206 330 321 286 252 285 354 19 278 266 302 319 318 324 326 334 336
91 88 78 67 38 27 281 231 84 107 185 132 149 124 131 161 100 90 185 97 61 338 163 329 175 312 22 13 329 11 353 18 297 341 324 141 261 336 282 296 301 324 326 326 340
115 63 54 17 30 30 250 188 107 160 142 166 161 205 158 174 248 207 38 63 53 3 350 325 127 138 30 323 306 28 1 24 277 212 258 305 257 265 10 325 320 336 331 330 342
110 85 34 2 14 300 241 204 92 63 124 191 223 243 179 159 209 231 191 128 135 10 336 91 262 198 124 192 100 306 86 240 129 329 326 299 282 308 358 354 349 347 342 335 331
93 179 354 351 16 227 216 95 134 134 224 228 227 182 212 201 231 216 159 146 195 151 303 271 273 124 199 204 258 175 200 186 283 293 315 311 339 208 308 348 340 341 341 333 320
160 182 349 17 181 18 143 68 45 154 171 165 268 247 227 181 210 233 230 16 153 177 263 112 293 266 332 117 296 273 269 238 285 106 237 286 275 174 263 329 334 325 332 334 315
94 75 3 16 140 160 132 135 199 172 207 201 201 245 191 209 237 225 197 86 157 200 221 165 214 287 181 184 192 235 212 232 245 258 233 276 309 151 213 283 340 320 325 317 318
204 118 111 104 49 201 171 181 179 164 167 183 168 189 184 208 213 221 187 159 189 210 91 202 251 259 276 334 312 232 223 219 206 242 223 245 285 299 322 331 322 319 311 298 305
346 71 21 197 196 177 210 181 190 194 212 207 203 228 215 223 216 224 183 169 191 155 187 257 273 267 273 276 271 261 255 226 222 230 244 352 288 290 297 287 255 268 268 266 272
201 196 175 123 151 181 166 200 224 186 189 203 236 210 213 240 249 241 193 210 215 177 205 193 278 297 285 285 264 258 248 239 237 230 251 266 278 279 295 313 284 267 249 247 255
143 140 279 149 177 197 200 204 203 187 190 282 243 206 220 251 277 13 43 7 186 201 194 207 274 304 277 259 285 277 243 212 209 212 202 227 230 273 298 317 301 261 250 228 242
Height
832 832 831 831 830 829 826 825 824 823 821 818 817 816 815 813 812 802 814 826 814 807 805 804 801 801 801 807 812 806 815 835 851 849 875 878 877 885 886 886 889 892 895 901 901
835 835 834 833 832 830 828 827 825 824 821 814 813 814 814 814 812 808 826 817 812 809 807 804 805 803 810 818 822 815 830 858 860 863 871 876 875 884 885 888 891 895 900 901 900
837 836 836 835 834 832 830 829 827 825 822 815 811 814 814 814 811 827 823 815 814 813 812 810 811 810 818 828 835 837 853 864 869 871 872 877 882 886 883 889 893 895 898 899 898
839 838 838 837 836 835 833 831 828 825 823 822 819 819 816 816 838 836 826 820 817 815 815 813 811 819 833 842 848 857 866 870 878 880 879 880 885 891 888 894 899 900 901 898 896
841 840 840 839 838 836 835 833 830 827 824 825 822 820 820 821 842 842 833 824 821 819 817 818 819 825 840 850 855 865 875 878 883 885 886 889 889 892 898 900 901 902 901 898 897
843 843 842 841 840 838 837 835 834 831 829 828 825 822 820 830 849 844 838 830 826 823 821 819 829 832 848 855 854 873 878 882 885 890 892 890 894 894 900 902 902 901 899 898 898
845 845 844 842 841 840 839 837 836 835 833 831 829 829 822 851 851 847 843 839 835 832 831 836 837 832 853 867 873 875 879 883 887 890 892 891 888 889 895 900 898 897 896 897 897
847 847 845 844 842 841 840 839 838 837 835 834 833 832 843 854 853 849 848 845 842 841 840 844 844 843 853 870 873 870 867 862 887 887 892 893 866 888 894 895 893 894 894 894 893
849 848 847 845 844 842 841 841 840 839 837 836 835 834 850 856 854 854 851 850 848 847 847 848 847 854 865 853 853 862 858 868 878 888 886 885 872 883 891 893 891 889 890 891 890
850 849 848 847 845 844 844 843 842 841 839 838 840 838 858 862 858 856 855 852 850 847 846 847 843 848 852 840 860 865 860 867 872 880 884 878 875 879 886 888 886 886 886 887 887
851 850 849 846 846 845 844 843 842 846 847 853 858 856 861 864 860 858 857 853 850 849 854 854 858 874 879 879 878 877 876 876 876 889 889 877 875 872 878 884 884 884 882 880 880
852 851 851 849 847 845 845 846 852 853 859 860 861 861 863 864 859 861 859 858 855 861 859 860 876 890 890 889 887 883 877 871 881 893 891 871 868 867 875 879 880 878 874 873 873
853 853 852 851 850 848 850 853 853 853 850 864 865 863 866 866 870 870 868 870 867 867 868 870 894 899 895 890 890 886 886 885 886 885 883 880 853 871 872 876 875 877 875 874 873
854 854 853 852 854 852 855 855 854 854 849 871 866 869 869 867 872 877 876 875 877 881 880 887 898 897 890 888 891 875 894 893 889 883 863 883 862 865 871 872 868 868 870 869 868
855 854 854 854 853 854 857 855 854 855 867 873 869 871 869 868 874 877 880 874 880 884 882 892 893 890 885 897 896 888 898 891 888 878 880 874 871 852 871 861 861 864 866 867 868
856 855 855 856 855 857 856 855 855 855 882 874 870 872 869 871 876 878 879 880 883 879 881 891 897 894 894 896 896 895 891 889 886 877 859 884 880 857 861 866 863 863 863 865 865
857 856 856 856 858 857 857 857 859 875 877 876 873 871 872 876 878 879 881 881 874 873 875 888 891 896 899 889 889 879 866 843 843 846 851 897 884 870 861 860 864 864 862 864 866
859 858 858 858 858 858 858 853 878 871 869 870 871 873 873 877 881 882 881 877 884 880 876 871 871 892 898 897 896 892 885 878 880 857 861 892 878 858 863 863 864 864 863 864 863
860 860 860 860 859 859 857 874 862 859 861 868 872 872 874 878 877 878 880 880 886 886 879 875 878 897 901 900 901 888 884 898 895 898 886 859 869 864 859 857 859 860 862 861 862
861 862 863 861 860 860 855 872 865 866 866 865 865 867 867 872 875 875 879 886 887 891 890 887 881 895 902 901 902 897 900 888 884 884 878 856 873 851 851 854 856 857 859 860 861
862 858 864 862 861 856 865 865 869 870 868 869 867 869 868 872 873 874 877 888 889 893 892 890 890 892 900 894 883 894 890 899 897 892 879 871 844 854 856 857 858 856 858 859 859
861 860 864 863 861 867 865 868 874 870 871 871 870 869 869 871 873 875 876 881 890 891 889 893 889 878 873 892 893 891 887 887 883 878 889 890 867 850 856 857 858 856 858 859 859
859 862 865 863 880 873 873 872 871 872 870 872 872 872 874 873 877 876 879 895 895 893 891 893 885 871 872 890 894 890 885 887 890 897 887 873 838 848 854 855 851 854 857 857 859
860 867 864 864 868 864 868 869 872 875 873 873 874 874 875 876 877 877 882 895 897 894 904 899 887 881 864 862 876 883 884 886 892 883 872 861 845 838 839 862 855 856 856 857 858
862 865 865 876 868 866 868 869 870 872 874 874 875 872 872 874 876 876 880 892 897 901 898 896 884 880 872 868 870 876 879 877 885 889 878 854 863 853 853 862 861 859 857 858 856
861 862 867 866 868 867 874 867 866 868 870 871 873 869 870 871 868 871 874 879 877 896 895 897 881 884 873 871 883 873 867 868 867 876 887 878 862 840 839 847 852 855 853 856 853
866 865 861 874 868 864 861 860 864 867 871 869 869 870 873 870 873 876 876 880 880 882 888 889 885 881 864 870 870 854 838 847 856 857 874 859 847 838 837 840 848 852 847 853 851